INMARSAT 3-F3

Last updated on Fri Oct 31 2025 00:02:44 GMT+0000 (Coordinated Universal Time)

1 24674U 96070A 25303.29368223 -.00000184 00000+0 00000+0 0 9995 2 24674 9.8202 51.8111 0008376 178.4657 193.4481 0.99979646105617
UTC large
Height (km)
Speed (km/s)
/
Latitude / Longitude
Inclination (degrees)
Orbital Period (minutes)
Azimuth
Elevation
Range (km)
Doppler Factor

Next 0 passes for location: London (51.5072 / 0.1276)

Sorry there are no passes over London.